User: anonymous   Login
Location: Columbia
(38.9520°N, 92.3340°W)
Time: 04:13:20
(UTC-06:00)
Language:

Cosmos 2219 Rocket - Orbit

View from above orbital plane
View from above orbital plane
View from above satellite
View from above satellite

Ground track
Ground track

The orbit data is extracted from the following two-line orbital elements,

1 22220U 92076B   18020.83402962 -.00000258 +00000-0 -10546-3 0  9993
2 22220 071.0014 321.1081 0015039 296.3264 094.9894 14.16425842301261
Epoch (UTC): 20 January 2018 20:01:00
Eccentricity: 0.0015039
inclination: 71.0014°
perigee height: 826 km
apogee height: 848 km
right ascension of ascending node: 321.1081°
argument of perigee: 296.3264°
revolutions per day: 14.16425842
mean anomaly at epoch: 94.9894°
orbit number at epoch: 30126

The dashed part of the orbit path shows where the satellite is in the earth's shadow,  

DLR